Content
SEND FEEDBACK

Daily
Averages
Monthly
Summary
Switzerland

GENEVA, SWITZERLAND


Home > Europe > Switzerland
Elevation: 1364 feet     Latitude: 46 15N     Longitude: 006 08E

WEATHER
 
SELECT A DAY
Number of Records: 306,145;   Date Range: 7/1/96 - 9/3/14
 
SHARE

PRINT THIS DATA

[ ← Previous Day ]
WEATHER ALMANAC - APRIL 25, 2014
[ Next Day → ]
[ °C ]   °F
Weather ElementAverageHighLow
Temperature56.7 °F66.2 °F (3:50 pm)50 °F (4:20 am)
Dewpoint49.8 °F53.6 °F (8:50 am)45 °F (7:00 pm)
Humidity77.4 %100 % (2:20 am)40 % (3:00 pm)
Barometer29.88 in29.99 in (11:00 pm)29.83 in (2:50 am)
Wind Speed3.6 mph10.4 mph (11:00 am)
Weather ElementAverage
Visibility8.1 mi
Wind DirectionESE (123.1 °)

Weather ElementTotal
Precipitation---
Heating Degree Days6.9 (Base 65)
Growing Degree Days8.1 (Base 50)
Averaged from 70 records on April 25, 2014
WEATHER CONDITIONS BREAKOUT
WIND DIRECTION BREAKOUT
WEATHER BY HOUR - APRIL 25, 2014
[ °C ]   °F
Local TimeTemperatureDewpointHumidityBarometerVisibilityWind DirectionWind SpeedGust SpeedPrecipitationEventsConditions
12:20 AM55.4 °F46.4 °F72 %29.86 in6.2 miCalmMostly Cloudy
12:50 AM55.4 °F50.0 °F82 %29.86 in6.2 miVariable2.3 mphRainLight Rain Showers
1:00 AM54.0 °F51.0 °F84 %29.87 inWest (270°)3.5 mph
1:20 AM53.6 °F51.8 °F94 %29.86 in6.2 miVariable1.2 mphRainLight Rain Showers
1:50 AM53.6 °F51.8 °F94 %29.86 in6.2 miVariable2.3 mphMostly Cloudy
2:00 AM53.0 °F51.0 °F92 %29.86 in17.0 miNE (40°)2.3 mphRainLight Rain Showers
2:20 AM51.8 °F51.8 °F100 %29.86 in6.2 miCalmMostly Cloudy
2:50 AM51.8 °F51.8 °F100 %29.83 in6.2 miCalmMostly Cloudy
3:00 AM53.0 °F50.0 °F87 %29.84 inWest (260°)3.5 mph
3:50 AM51.8 °F50.0 °F94 %29.83 in6.2 miCalmScattered Clouds
4:00 AM52.0 °F50.0 °F89 %29.84 inSW (230°)1.2 mph
4:20 AM50.0 °F50.0 °F100 %29.83 in6.2 miCalmMostly Cloudy
4:50 AM50.0 °F50.0 °F100 %29.83 in6.2 miVariable1.2 mphMostly Cloudy
5:00 AM52.0 °F49.0 °F88 %29.83 in19.0 miSW (220°)1.2 mphPartly Cloudy
5:20 AM50.0 °F50.0 °F100 %29.83 in6.2 miCalmMostly Cloudy
5:50 AM51.8 °F51.8 °F100 %29.83 in6.2 miCalmMostly Cloudy
6:00 AM52.0 °F49.0 °F86 %29.83 inNorth (10°)1.2 mph
6:20 AM50.0 °F50.0 °F100 %29.83 in6.2 miCalmMostly Cloudy
6:50 AM51.8 °F51.8 °F100 %29.83 in6.2 miVariable1.2 mphScattered Clouds
7:00 AM52.0 °F50.0 °F89 %29.83 inWest (260°)2.3 mph
7:20 AM51.8 °F51.8 °F100 %29.83 in6.2 miWest (280°)1.2 mphMostly Cloudy
7:50 AM53.6 °F51.8 °F94 %29.83 in6.2 miCalmMostly Cloudy
8:00 AM53.0 °F50.0 °F86 %29.84 in28.0 miWNW (290°)2.3 mphPartly Cloudy
8:20 AM53.6 °F51.8 °F94 %29.83 in6.2 miCalmMostly Cloudy
8:50 AM55.4 °F53.6 °F94 %29.83 in6.2 miCalmMostly Cloudy
9:00 AM56.0 °F51.0 °F77 %29.84 inNorth1.2 mph
9:20 AM57.2 °F51.8 °F82 %29.86 in6.2 miCalmMostly Cloudy
9:50 AM59.0 °F53.6 °F82 %29.86 in6.2 miCalmMostly Cloudy
10:00 AM58.0 °F51.0 °F70 %29.85 inWest (280°)2.3 mph
10:20 AM59.0 °F51.8 °F77 %29.86 in6.2 miWSW (240°)2.3 mphMostly Cloudy
10:50 AM60.8 °F51.8 °F72 %29.86 in6.2 miSSW (200°)8.1 mphMostly Cloudy
11:00 AM59.0 °F49.0 °F60 %29.86 in28.0 miSSW (210°)10.4 mphOvercast
11:20 AM59.0 °F50.0 °F72 %29.89 in6.2 miWSW (240°)6.9 mphMostly Cloudy
11:50 AM60.8 °F50.0 °F68 %29.89 in6.2 miSW (230°)8.1 mphMostly Cloudy
12:00 PM60.0 °F47.0 °F53 %29.87 inSSW (200°)9.2 mph
12:20 PM60.8 °F48.2 °F63 %29.89 in6.2 miSSW (200°)9.2 mphMostly Cloudy
12:50 PM60.8 °F48.2 °F63 %29.89 in6.2 miSSW (200°)8.1 mphMostly Cloudy
1:00 PM61.0 °F48.0 °F51 %29.86 inSouth (190°)8.1 mph
1:20 PM60.8 °F51.8 °F72 %29.89 in6.2 miVariable3.5 mphRainLight Rain Showers
1:50 PM60.8 °F50.0 °F68 %29.89 in6.2 miVariable3.5 mphMostly Cloudy
2:00 PM62.0 °F47.0 °F47 %29.86 in28.0 miNorth4.6 mphOvercast
2:20 PM62.6 °F48.2 °F59 %29.89 in6.2 miWNW (300°)3.5 mphMostly Cloudy
2:50 PM64.4 °F46.4 °F52 %29.89 in6.2 miVariable3.5 mphMostly Cloudy
3:00 PM64.0 °F46.0 °F40 %29.86 inSE (140°)2.3 mph
3:20 PM64.4 °F48.2 °F56 %29.89 in6.2 miVariable2.3 mphMostly Cloudy
3:50 PM66.2 °F46.4 °F49 %29.89 in6.2 miVariable2.3 mphMostly Cloudy
4:00 PM64.0 °F47.0 °F42 %29.85 inSE (130°)3.5 mph
4:20 PM64.4 °F48.2 °F56 %29.89 in6.2 miVariable2.3 mphMostly Cloudy
4:50 PM60.8 °F48.2 °F63 %29.89 in6.2 miVariable6.9 mphMostly Cloudy
5:00 PM61.0 °F46.0 °F48 %29.87 in25.0 miNW (320°)4.6 mphMostly Cloudy
5:20 PM60.8 °F46.4 °F59 %29.89 in6.2 miNNW (330°)5.8 mphMostly Cloudy
5:50 PM60.8 °F48.2 °F63 %29.89 in6.2 miVariable5.8 mphMostly Cloudy
6:00 PM60.0 °F46.0 °F50 %29.88 inNNW (340°)6.9 mph
6:20 PM60.8 °F46.4 °F59 %29.89 in6.2 miNNW (330°)8.1 mphMostly Cloudy
6:50 PM60.8 °F46.4 °F59 %29.89 in6.2 miNNW (330°)5.8 mphMostly Cloudy
7:00 PM60.0 °F45.0 °F48 %29.89 inNNW (330°)4.6 mph
7:20 PM59.0 °F46.4 °F63 %29.92 in6.2 miVariable5.8 mphMostly Cloudy
7:50 PM59.0 °F46.4 °F63 %29.92 in6.2 miVariable2.3 mphRainLight Rain Showers
8:00 PM57.0 °F48.0 °F63 %29.93 in12.0 miSSE (160°)4.6 mphRainLight Rain Showers
8:20 PM55.4 °F51.8 °F88 %29.95 in3.7 miSSE (160°)5.8 mphRainRain Showers
8:50 PM53.6 °F51.8 °F94 %29.95 in5.6 miSSW (200°)5.8 mphRainLight Rain Showers
9:00 PM54.0 °F51.0 °F88 %29.96 inSSW (210°)6.9 mph
9:20 PM53.6 °F51.8 °F94 %29.95 in4.3 miSW (220°)8.1 mphRainRain Showers
9:50 PM53.6 °F51.8 °F94 %29.98 in4.3 miSouth (180°)4.6 mphRainRain Showers
10:00 PM54.0 °F52.0 °F89 %29.98 inSSW (200°)4.6 mph
10:20 PM53.6 °F53.6 °F100 %29.98 in6.2 miSSW (200°)5.8 mphRainLight Rain Showers
10:50 PM53.6 °F53.6 °F100 %29.98 in6.2 miVariable3.5 mphRainLight Rain Showers
11:00 PM54.0 °F52.0 °F90 %29.99 in6.0 miWSW (250°)3.5 mphRainLight Rain Showers
11:20 PM53.6 °F53.6 °F100 %29.98 in6.2 miWSW (240°)3.5 mphRainLight Rain Showers
11:50 PM53.6 °F51.8 °F94 %29.98 in6.2 miVariable3.5 mphMostly Cloudy
Hourly data recorded from LSGG, located miles away from Geneva, Switzerland







STORIES FROM OUR PARTNERS